Wetterdaten: Woche 02.10.17 - 08.10.17 (KW40)
Datum Zeit Temp. I. Temp. A. Feuchte I. Feuchte A. Luftdruck Regen Wind Richtung Sonnenschein UV Solar Taupunkt Windchill Windben
02.10.2017 00:00 24,4 C 9,3 C 59 % 93 % 1021,8 hPa 0,0 l/m 0,0 km/h (0 Bft) N 0,00 h 0,0 UV-I 0 W/m 8,2 C 9,3 C 0,0 km/h (0 Bft)
02.10.2017 01:00 24,5 C 8,5 C 59 % 94 % 1021,6 hPa 0,0 l/m 0,0 km/h (0 Bft) N 0,00 h 0,0 UV-I 0 W/m 7,6 C 8,5 C 0,0 km/h (0 Bft)
02.10.2017 02:00 24,4 C 8,0 C 59 % 95 % 1021,4 hPa 0,0 l/m 0,0 km/h (0 Bft) N 0,00 h 0,0 UV-I 0 W/m 7,2 C 8,0 C 0,0 km/h (0 Bft)
02.10.2017 03:00 24,3 C 7,3 C 59 % 95 % 1021,2 hPa 0,0 l/m 0,0 km/h (0 Bft) N 0,00 h 0,0 UV-I 0 W/m 6,6 C 7,3 C 0,0 km/h (0 Bft)
02.10.2017 04:00 24,3 C 6,4 C 59 % 95 % 1020,8 hPa 0,0 l/m 0,0 km/h (0 Bft) N 0,00 h 0,0 UV-I 0 W/m 5,7 C 6,4 C 0,0 km/h (0 Bft)
02.10.2017 05:00 24,3 C 5,6 C 59 % 95 % 1020,7 hPa 0,0 l/m 0,0 km/h (0 Bft) N 0,00 h 0,0 UV-I 0 W/m 4,9 C 5,6 C 0,0 km/h (0 Bft)
02.10.2017 06:00 24,3 C 4,7 C 59 % 95 % 1020,7 hPa 0,0 l/m 0,0 km/h (0 Bft) N 0,00 h 0,0 UV-I 0 W/m 4,0 C 4,7 C 0,0 km/h (0 Bft)
02.10.2017 07:00 24,2 C 4,5 C 57 % 96 % 1020,7 hPa 0,0 l/m 0,0 km/h (0 Bft) N 0,00 h 0,0 UV-I 17 W/m 3,8 C 4,5 C 0,0 km/h (0 Bft)
02.10.2017 08:00 24,1 C 6,3 C 55 % 97 % 1020,4 hPa 0,2 l/m 0,0 km/h (0 Bft) SO 0,00 h 0,0 UV-I 43 W/m 5,8 C 6,3 C 0,0 km/h (0 Bft)
02.10.2017 09:00 23,7 C 9,5 C 54 % 97 % 1020,1 hPa 0,0 l/m 4,6 km/h (1 Bft) S 0,42 h 0,8 UV-I 153 W/m 9,1 C 9,1 C 9,6 km/h (2 Bft)
02.10.2017 10:00 23,2 C 11,0 C 55 % 96 % 1020,1 hPa 0,0 l/m 8,0 km/h (2 Bft) S-SO 0,87 h 1,3 UV-I 216 W/m 10,4 C 9,6 C 11,9 km/h (2 Bft)
02.10.2017 11:00 21,7 C 13,1 C 54 % 88 % 1019,6 hPa 0,0 l/m 11,4 km/h (2 Bft) S 1,00 h 1,9 UV-I 369 W/m 11,1 C 10,5 C 18,5 km/h (3 Bft)
02.10.2017 12:00 20,3 C 13,7 C 58 % 85 % 1018,9 hPa 0,0 l/m 9,3 km/h (2 Bft) S 1,00 h 2,4 UV-I 345 W/m 11,3 C 12,0 C 17,2 km/h (3 Bft)
02.10.2017 13:00 20,2 C 14,3 C 59 % 83 % 1018,1 hPa 0,0 l/m 8,5 km/h (2 Bft) S 1,00 h 1,8 UV-I 223 W/m 11,4 C 12,9 C 16,5 km/h (3 Bft)
02.10.2017 14:00 20,3 C 14,5 C 59 % 82 % 1017,6 hPa 0,0 l/m 7,5 km/h (2 Bft) S 1,00 h 1,5 UV-I 206 W/m 11,5 C 13,4 C 13,9 km/h (3 Bft)
02.10.2017 15:00 21,1 C 14,4 C 59 % 82 % 1016,9 hPa 0,0 l/m 4,8 km/h (1 Bft) S 0,03 h 0,7 UV-I 83 W/m 11,3 C 14,2 C 11,0 km/h (2 Bft)
02.10.2017 16:00 22,5 C 13,6 C 59 % 87 % 1016,4 hPa 0,0 l/m 4,3 km/h (1 Bft) S 0,00 h 0,0 UV-I 31 W/m 11,3 C 13,2 C 9,7 km/h (2 Bft)
02.10.2017 17:00 22,8 C 12,9 C 60 % 91 % 1016,4 hPa 0,8 l/m 1,3 km/h (1 Bft) S 0,00 h 0,0 UV-I 17 W/m 11,5 C 12,9 C 4,8 km/h (1 Bft)
02.10.2017 18:00 23,0 C 12,7 C 60 % 94 % 1016,1 hPa 0,2 l/m 4,9 km/h (1 Bft) S 0,00 h 0,0 UV-I 5 W/m 11,8 C 12,3 C 11,2 km/h (2 Bft)
02.10.2017 19:00 23,0 C 12,9 C 61 % 96 % 1015,9 hPa 0,8 l/m 4,8 km/h (1 Bft) S 0,00 h 0,0 UV-I 0 W/m 12,3 C 12,5 C 11,1 km/h (2 Bft)
02.10.2017 20:00 23,0 C 13,2 C 61 % 96 % 1015,8 hPa 0,0 l/m 3,8 km/h (1 Bft) S 0,00 h 0,0 UV-I 0 W/m 12,6 C 13,0 C 9,2 km/h (2 Bft)
02.10.2017 21:00 23,1 C 13,3 C 61 % 96 % 1015,5 hPa 0,4 l/m 4,0 km/h (1 Bft) S 0,00 h 0,0 UV-I 0 W/m 12,8 C 13,3 C 10,0 km/h (2 Bft)
02.10.2017 22:00 23,1 C 13,4 C 62 % 97 % 1015,0 hPa 0,8 l/m 2,3 km/h (1 Bft) S-SW 0,00 h 0,0 UV-I 0 W/m 12,9 C 13,4 C 7,3 km/h (2 Bft)
02.10.2017 23:00 23,4 C 13,4 C 63 % 97 % 1014,5 hPa 0,2 l/m 2,2 km/h (1 Bft) SW 0,00 h 0,0 UV-I 0 W/m 12,9 C 13,4 C 7,1 km/h (2 Bft)
03.10.2017 00:00 23,4 C 13,3 C 63 % 97 % 1014,0 hPa 0,0 l/m 2,9 km/h (1 Bft) SW 0,00 h 0,0 UV-I 0 W/m 12,8 C 13,0 C 7,3 km/h (2 Bft)
03.10.2017 01:00 23,4 C 12,9 C 63 % 95 % 1014,0 hPa 0,0 l/m 1,8 km/h (1 Bft) W-SW 0,00 h 0,0 UV-I 0 W/m 12,1 C 12,7 C 5,7 km/h (1 Bft)
03.10.2017 02:00 23,6 C 12,6 C 64 % 95 % 1014,0 hPa 0,4 l/m 0,6 km/h (0 Bft) SW 0,00 h 0,0 UV-I 0 W/m 11,8 C 12,6 C 3,6 km/h (1 Bft)
03.10.2017 03:00 23,4 C 12,3 C 64 % 95 % 1013,4 hPa 0,2 l/m 0,2 km/h (0 Bft) SW 0,00 h 0,0 UV-I 0 W/m 11,5 C 12,3 C 1,4 km/h (1 Bft)
03.10.2017 04:00 23,4 C 12,2 C 65 % 96 % 1012,5 hPa 0,4 l/m 0,1 km/h (0 Bft) S-SW 0,00 h 0,0 UV-I 0 W/m 11,5 C 12,2 C 0,5 km/h (0 Bft)
03.10.2017 05:00 23,4 C 11,9 C 64 % 96 % 1011,4 hPa 0,4 l/m 0,0 km/h (0 Bft) S 0,00 h 0,0 UV-I 0 W/m 11,2 C 11,9 C 0,1 km/h (0 Bft)
03.10.2017 06:00 23,5 C 11,6 C 64 % 96 % 1010,5 hPa 2,2 l/m 0,0 km/h (0 Bft) N 0,00 h 0,0 UV-I 0 W/m 11,0 C 11,6 C 0,0 km/h (0 Bft)
03.10.2017 07:00 23,6 C 11,3 C 64 % 96 % 1010,9 hPa 2,2 l/m 2,2 km/h (1 Bft) NW 0,00 h 0,0 UV-I 0 W/m 10,7 C 11,2 C 5,3 km/h (1 Bft)
03.10.2017 08:00 23,4 C 10,7 C 63 % 96 % 1011,6 hPa 3,2 l/m 1,9 km/h (1 Bft) N-NW 0,00 h 0,0 UV-I 21 W/m 10,0 C 10,4 C 4,7 km/h (1 Bft)
03.10.2017 09:00 23,3 C 10,3 C 63 % 96 % 1011,7 hPa 0,2 l/m 2,7 km/h (1 Bft) NW 0,00 h 0,5 UV-I 49 W/m 9,7 C 10,1 C 6,0 km/h (2 Bft)
03.10.2017 10:00 23,2 C 10,1 C 63 % 96 % 1013,0 hPa 0,0 l/m 2,6 km/h (1 Bft) W-NW 0,00 h 0,5 UV-I 43 W/m 9,5 C 9,8 C 5,1 km/h (1 Bft)
03.10.2017 11:00 21,4 C 10,2 C 61 % 96 % 1014,5 hPa 0,0 l/m 0,4 km/h (0 Bft) NW 0,00 h 0,7 UV-I 74 W/m 9,5 C 10,2 C 1,6 km/h (1 Bft)
03.10.2017 12:00 22,5 C 10,3 C 65 % 95 % 1016,2 hPa 0,0 l/m 0,4 km/h (0 Bft) W 0,00 h 0,7 UV-I 49 W/m 9,6 C 10,3 C 1,4 km/h (1 Bft)
03.10.2017 13:00 22,9 C 10,9 C 64 % 95 % 1017,1 hPa 0,2 l/m 1,5 km/h (1 Bft) W 0,63 h 1,2 UV-I 177 W/m 10,2 C 10,8 C 4,3 km/h (1 Bft)
03.10.2017 14:00 23,0 C 11,8 C 62 % 91 % 1017,6 hPa 0,0 l/m 3,1 km/h (1 Bft) W-NW 0,77 h 1,3 UV-I 214 W/m 10,3 C 11,7 C 8,2 km/h (2 Bft)
03.10.2017 15:00 22,9 C 12,2 C 60 % 87 % 1018,1 hPa 0,0 l/m 3,4 km/h (1 Bft) W 0,42 h 1,1 UV-I 229 W/m 10,0 C 11,9 C 8,7 km/h (2 Bft)
03.10.2017 16:00 23,0 C 12,5 C 61 % 83 % 1018,7 hPa 0,2 l/m 6,1 km/h (2 Bft) W-SW 0,43 h 1,1 UV-I 192 W/m 9,7 C 11,8 C 12,8 km/h (3 Bft)
03.10.2017 17:00 23,1 C 11,7 C 61 % 87 % 1019,3 hPa 0,0 l/m 3,6 km/h (1 Bft) W-SW 0,07 h 0,5 UV-I 66 W/m 9,5 C 11,5 C 9,1 km/h (2 Bft)
03.10.2017 18:00 23,0 C 11,1 C 61 % 88 % 1020,2 hPa 0,0 l/m 3,6 km/h (1 Bft) W-SW 0,00 h 0,0 UV-I 13 W/m 9,1 C 11,0 C 8,9 km/h (2 Bft)
03.10.2017 19:00 23,1 C 10,5 C 62 % 88 % 1021,4 hPa 0,0 l/m 2,0 km/h (1 Bft) W-SW 0,00 h 0,0 UV-I 0 W/m 8,6 C 10,5 C 5,6 km/h (1 Bft)
03.10.2017 20:00 23,2 C 9,8 C 61 % 91 % 1022,3 hPa 0,0 l/m 0,5 km/h (0 Bft) S-SW 0,00 h 0,0 UV-I 0 W/m 8,4 C 9,8 C 1,8 km/h (1 Bft)
03.10.2017 21:00 23,0 C 9,5 C 61 % 93 % 1023,0 hPa 0,0 l/m 1,7 km/h (1 Bft) SW 0,00 h 0,0 UV-I 0 W/m 8,4 C 9,5 C 5,1 km/h (1 Bft)
03.10.2017 22:00 23,0 C 9,2 C 62 % 93 % 1023,5 hPa 0,0 l/m 1,7 km/h (1 Bft) S-SW 0,00 h 0,0 UV-I 0 W/m 8,2 C 9,2 C 5,0 km/h (1 Bft)
03.10.2017 23:00 23,2 C 8,9 C 64 % 94 % 1024,1 hPa 0,0 l/m 0,6 km/h (0 Bft) S 0,00 h 0,0 UV-I 0 W/m 8,0 C 8,9 C 1,7 km/h (1 Bft)
04.10.2017 00:00 23,3 C 8,8 C 64 % 95 % 1024,4 hPa 0,0 l/m 0,2 km/h (0 Bft) SW 0,00 h 0,0 UV-I 0 W/m 8,0 C 8,8 C 0,8 km/h (0 Bft)
04.10.2017 01:00 23,2 C 8,7 C 65 % 95 % 1024,2 hPa 0,0 l/m 0,0 km/h (0 Bft) N 0,00 h 0,0 UV-I 0 W/m 8,0 C 8,7 C 0,1 km/h (0 Bft)
04.10.2017 02:00 23,3 C 8,6 C 66 % 95 % 1023,9 hPa 0,0 l/m 0,0 km/h (0 Bft) N 0,00 h 0,0 UV-I 0 W/m 7,8 C 8,6 C 0,2 km/h (0 Bft)
04.10.2017 03:00 23,2 C 8,1 C 65 % 95 % 1023,8 hPa 0,0 l/m 0,0 km/h (0 Bft) N 0,00 h 0,0 UV-I 0 W/m 7,4 C 8,1 C 0,0 km/h (0 Bft)
04.10.2017 04:00 23,0 C 7,6 C 65 % 95 % 1024,0 hPa 0,0 l/m 0,2 km/h (0 Bft) W-SW 0,00 h 0,0 UV-I 0 W/m 6,9 C 7,6 C 0,6 km/h (0 Bft)
04.10.2017 05:00 22,8 C 7,5 C 65 % 96 % 1023,9 hPa 0,0 l/m 0,0 km/h (0 Bft) N 0,00 h 0,0 UV-I 0 W/m 6,9 C 7,5 C 0,0 km/h (0 Bft)
04.10.2017 06:00 22,9 C 7,5 C 65 % 96 % 1023,9 hPa 0,0 l/m 0,9 km/h (0 Bft) S 0,00 h 0,0 UV-I 0 W/m 6,9 C 7,5 C 2,6 km/h (1 Bft)
04.10.2017 07:00 23,1 C 7,7 C 63 % 96 % 1023,8 hPa 0,0 l/m 2,5 km/h (1 Bft) S-SW 0,00 h 0,0 UV-I 17 W/m 7,1 C 7,7 C 5,7 km/h (1 Bft)
04.10.2017 08:00 23,1 C 7,9 C 62 % 96 % 1023,9 hPa 0,0 l/m 3,7 km/h (1 Bft) SW 0,00 h 0,0 UV-I 47 W/m 7,4 C 7,8 C 8,3 km/h (2 Bft)
04.10.2017 09:00 23,0 C 8,2 C 59 % 96 % 1024,0 hPa 0,0 l/m 4,0 km/h (1 Bft) S 0,00 h 0,6 UV-I 76 W/m 7,6 C 8,1 C 8,3 km/h (2 Bft)
04.10.2017 10:00 23,0 C 9,0 C 58 % 94 % 1024,3 hPa 0,0 l/m 4,7 km/h (1 Bft) S-SW 0,68 h 1,0 UV-I 176 W/m 8,1 C 8,9 C 10,1 km/h (2 Bft)
04.10.2017 11:00 23,1 C 9,8 C 56 % 90 % 1024,0 hPa 0,0 l/m 2,6 km/h (1 Bft) S 0,25 h 1,1 UV-I 138 W/m 8,2 C 9,8 C 7,1 km/h (2 Bft)
04.10.2017 12:00 23,1 C 10,6 C 55 % 86 % 1023,2 hPa 0,0 l/m 2,8 km/h (1 Bft) SW 0,63 h 1,4 UV-I 188 W/m 8,4 C 10,6 C 7,4 km/h (2 Bft)
04.10.2017 13:00 23,0 C 11,9 C 53 % 78 % 1022,3 hPa 0,0 l/m 5,4 km/h (1 Bft) W-SW 0,73 h 1,8 UV-I 226 W/m 8,2 C 11,4 C 12,7 km/h (3 Bft)
04.10.2017 14:00 22,6 C 12,4 C 50 % 74 % 1021,7 hPa 0,0 l/m 4,5 km/h (1 Bft) W-SW 0,93 h 1,7 UV-I 289 W/m 8,0 C 12,2 C 11,6 km/h (2 Bft)
04.10.2017 15:00 22,1 C 12,7 C 48 % 73 % 1021,1 hPa 0,0 l/m 5,6 km/h (1 Bft) W-SW 0,75 h 1,4 UV-I 232 W/m 8,0 C 12,2 C 13,9 km/h (3 Bft)
04.10.2017 16:00 21,4 C 12,4 C 48 % 73 % 1020,5 hPa 0,0 l/m 7,5 km/h (2 Bft) W-SW 0,55 h 0,8 UV-I 166 W/m 7,7 C 11,3 C 16,4 km/h (3 Bft)
04.10.2017 17:00 21,0 C 12,0 C 48 % 72 % 1020,3 hPa 0,0 l/m 7,3 km/h (2 Bft) W-SW 0,00 h 0,5 UV-I 50 W/m 7,1 C 10,9 C 15,5 km/h (3 Bft)
04.10.2017 18:00 20,4 C 11,2 C 50 % 74 % 1020,0 hPa 0,0 l/m 6,7 km/h (2 Bft) W-SW 0,00 h 0,0 UV-I 14 W/m 6,8 C 10,5 C 13,7 km/h (3 Bft)
04.10.2017 19:00 22,1 C 10,7 C 53 % 78 % 1019,9 hPa 0,0 l/m 5,7 km/h (1 Bft) W-SW 0,00 h 0,0 UV-I 0 W/m 7,1 C 10,3 C 12,6 km/h (3 Bft)
04.10.2017 20:00 22,8 C 10,5 C 55 % 82 % 1019,6 hPa 0,0 l/m 4,7 km/h (1 Bft) W-SW 0,00 h 0,0 UV-I 0 W/m 7,4 C 10,2 C 10,4 km/h (2 Bft)
04.10.2017 21:00 23,0 C 10,3 C 56 % 83 % 1019,3 hPa 0,0 l/m 5,2 km/h (1 Bft) SW 0,00 h 0,0 UV-I 0 W/m 7,6 C 10,0 C 11,5 km/h (2 Bft)
04.10.2017 22:00 23,0 C 10,2 C 58 % 85 % 1019,2 hPa 0,0 l/m 4,6 km/h (1 Bft) SW 0,00 h 0,0 UV-I 0 W/m 7,7 C 10,0 C 10,2 km/h (2 Bft)
04.10.2017 23:00 23,1 C 10,2 C 58 % 85 % 1019,1 hPa 0,0 l/m 7,0 km/h (2 Bft) W-SW 0,00 h 0,0 UV-I 0 W/m 7,8 C 9,2 C 14,5 km/h (3 Bft)
05.10.2017 00:00 23,1 C 10,3 C 59 % 85 % 1018,7 hPa 0,0 l/m 8,4 km/h (2 Bft) W 0,00 h 0,0 UV-I 0 W/m 7,8 C 8,7 C 16,6 km/h (3 Bft)
05.10.2017 01:00 23,1 C 10,2 C 59 % 85 % 1018,1 hPa 0,0 l/m 9,6 km/h (2 Bft) W-SW 0,00 h 0,0 UV-I 0 W/m 7,8 C 8,1 C 18,3 km/h (3 Bft)
05.10.2017 02:00 23,0 C 10,1 C 59 % 85 % 1017,7 hPa 0,0 l/m 8,3 km/h (2 Bft) W-SW 0,00 h 0,0 UV-I 0 W/m 7,7 C 8,6 C 15,2 km/h (3 Bft)
05.10.2017 03:00 23,0 C 10,0 C 59 % 85 % 1017,0 hPa 0,0 l/m 7,7 km/h (2 Bft) W-SW 0,00 h 0,0 UV-I 0 W/m 7,7 C 8,8 C 14,7 km/h (3 Bft)
05.10.2017 04:00 22,9 C 10,0 C 59 % 85 % 1015,7 hPa 0,0 l/m 6,9 km/h (2 Bft) SW 0,00 h 0,0 UV-I 0 W/m 7,7 C 9,1 C 14,0 km/h (3 Bft)
05.10.2017 05:00 22,9 C 9,9 C 59 % 87 % 1014,2 hPa 0,0 l/m 8,3 km/h (2 Bft) SW 0,00 h 0,0 UV-I 0 W/m 7,8 C 8,6 C 16,4 km/h (3 Bft)
05.10.2017 06:00 23,1 C 10,1 C 58 % 87 % 1012,9 hPa 0,0 l/m 10,5 km/h (2 Bft) SW 0,00 h 0,0 UV-I 0 W/m 8,1 C 7,6 C 21,1 km/h (4 Bft)
05.10.2017 07:00 23,2 C 10,2 C 58 % 88 % 1011,8 hPa 0,0 l/m 10,6 km/h (2 Bft) S-SW 0,00 h 0,0 UV-I 8 W/m 8,2 C 7,5 C 19,5 km/h (3 Bft)
05.10.2017 08:00 23,2 C 10,3 C 58 % 87 % 1010,7 hPa 0,0 l/m 12,6 km/h (3 Bft) SW 0,00 h 0,0 UV-I 30 W/m 8,2 C 6,7 C 23,6 km/h (4 Bft)
05.10.2017 09:00 22,3 C 10,9 C 54 % 84 % 1010,2 hPa 0,0 l/m 13,0 km/h (3 Bft) SW 0,13 h 0,7 UV-I 120 W/m 8,3 C 7,3 C 23,3 km/h (4 Bft)
05.10.2017 10:00 20,4 C 11,5 C 54 % 79 % 1009,5 hPa 0,0 l/m 9,2 km/h (2 Bft) W-SW 0,07 h 0,7 UV-I 89 W/m 8,0 C 9,6 C 19,5 km/h (3 Bft)
05.10.2017 11:00 21,4 C 13,3 C 50 % 68 % 1008,2 hPa 0,0 l/m 18,2 km/h (3 Bft) W-SW 0,97 h 2,1 UV-I 355 W/m 7,4 C 8,3 C 31,5 km/h (5 Bft)
05.10.2017 12:00 22,2 C 14,1 C 48 % 64 % 1007,6 hPa 0,0 l/m 14,7 km/h (3 Bft) SW 0,78 h 1,8 UV-I 252 W/m 7,3 C 10,3 C 26,0 km/h (4 Bft)
05.10.2017 13:00 22,2 C 14,1 C 47 % 64 % 1006,5 hPa 0,0 l/m 8,3 km/h (2 Bft) SW 0,10 h 0,9 UV-I 90 W/m 7,4 C 12,8 C 16,8 km/h (3 Bft)
05.10.2017 14:00 21,5 C 14,1 C 49 % 72 % 1006,2 hPa 0,0 l/m 16,0 km/h (3 Bft) W-SW 0,00 h 0,6 UV-I 51 W/m 9,0 C 10,0 C 27,1 km/h (4 Bft)
05.10.2017 15:00 21,2 C 13,1 C 53 % 79 % 1006,2 hPa 0,0 l/m 18,3 km/h (3 Bft) W-SW 0,00 h 0,5 UV-I 39 W/m 9,5 C 8,1 C 31,4 km/h (5 Bft)
05.10.2017 16:00 20,9 C 12,0 C 54 % 87 % 1006,2 hPa 0,6 l/m 14,8 km/h (3 Bft) W-SW 0,00 h 0,0 UV-I 29 W/m 9,8 C 7,9 C 24,6 km/h (4 Bft)
05.10.2017 17:00 20,7 C 11,4 C 57 % 91 % 1006,7 hPa 0,4 l/m 18,1 km/h (3 Bft) W 0,00 h 0,0 UV-I 20 W/m 9,9 C 5,8 C 30,0 km/h (5 Bft)
05.10.2017 18:00 22,3 C 11,1 C 57 % 88 % 1007,6 hPa 0,0 l/m 12,1 km/h (2 Bft) W 0,00 h 0,0 UV-I 17 W/m 9,3 C 7,9 C 20,6 km/h (4 Bft)
05.10.2017 19:00 22,8 C 10,6 C 59 % 87 % 1009,3 hPa 0,2 l/m 13,4 km/h (3 Bft) W-NW 0,00 h 0,0 UV-I 0 W/m 8,5 C 6,8 C 21,6 km/h (4 Bft)
05.10.2017 20:00 22,8 C 9,6 C 59 % 84 % 1010,7 hPa 0,0 l/m 14,2 km/h (3 Bft) W-NW 0,00 h 0,0 UV-I 0 W/m 7,0 C 5,2 C 21,6 km/h (4 Bft)
05.10.2017 21:00 22,7 C 8,7 C 60 % 83 % 1011,8 hPa 0,0 l/m 9,3 km/h (2 Bft) NW 0,00 h 0,0 UV-I 0 W/m 5,9 C 6,6 C 15,1 km/h (3 Bft)
05.10.2017 22:00 22,8 C 7,6 C 60 % 85 % 1012,4 hPa 0,0 l/m 2,9 km/h (1 Bft) NW 0,00 h 0,0 UV-I 0 W/m 5,3 C 7,6 C 5,8 km/h (2 Bft)
05.10.2017 23:00 23,0 C 7,1 C 61 % 88 % 1012,9 hPa 0,0 l/m 4,9 km/h (1 Bft) W 0,00 h 0,0 UV-I 0 W/m 5,3 C 6,9 C 10,1 km/h (2 Bft)
06.10.2017 00:00 22,9 C 7,6 C 61 % 87 % 1013,2 hPa 0,0 l/m 5,5 km/h (1 Bft) W 0,00 h 0,0 UV-I 0 W/m 5,6 C 7,2 C 10,7 km/h (2 Bft)
06.10.2017 01:00 23,0 C 7,7 C 62 % 87 % 1013,2 hPa 0,0 l/m 5,6 km/h (1 Bft) W 0,00 h 0,0 UV-I 0 W/m 5,7 C 7,3 C 11,1 km/h (2 Bft)
06.10.2017 02:00 23,0 C 6,9 C 62 % 89 % 1013,3 hPa 0,0 l/m 1,7 km/h (1 Bft) W 0,00 h 0,0 UV-I 0 W/m 5,2 C 6,9 C 4,0 km/h (1 Bft)
06.10.2017 03:00 22,9 C 6,1 C 62 % 92 % 1013,5 hPa 0,0 l/m 0,6 km/h (0 Bft) S 0,00 h 0,0 UV-I 0 W/m 4,8 C 6,1 C 1,3 km/h (1 Bft)
06.10.2017 04:00 22,7 C 6,5 C 62 % 93 % 1013,5 hPa 0,0 l/m 1,7 km/h (1 Bft) SW 0,00 h 0,0 UV-I 0 W/m 5,4 C 6,5 C 4,3 km/h (1 Bft)
06.10.2017 05:00 22,6 C 7,0 C 62 % 92 % 1013,3 hPa 0,0 l/m 6,7 km/h (2 Bft) W-SW 0,00 h 0,0 UV-I 0 W/m 5,8 C 6,1 C 12,7 km/h (3 Bft)
06.10.2017 06:00 22,7 C 7,1 C 61 % 91 % 1013,4 hPa 0,0 l/m 9,4 km/h (2 Bft) W-SW 0,00 h 0,0 UV-I 0 W/m 5,7 C 4,8 C 16,6 km/h (3 Bft)
06.10.2017 07:00 22,9 C 6,9 C 61 % 91 % 1013,6 hPa 0,0 l/m 9,4 km/h (2 Bft) W-SW 0,00 h 0,0 UV-I 9 W/m 5,5 C 4,8 C 16,0 km/h (3 Bft)
06.10.2017 08:00 23,0 C 6,9 C 60 % 92 % 1013,6 hPa 0,0 l/m 10,7 km/h (2 Bft) W-SW 0,00 h 0,5 UV-I 50 W/m 5,7 C 3,9 C 18,1 km/h (3 Bft)
06.10.2017 09:00 23,0 C 7,4 C 59 % 90 % 1013,9 hPa 0,0 l/m 13,1 km/h (3 Bft) W-SW 0,00 h 0,7 UV-I 90 W/m 5,9 C 3,1 C 21,7 km/h (4 Bft)
06.10.2017 10:00 22,8 C 7,7 C 56 % 89 % 1014,2 hPa 0,2 l/m 14,1 km/h (3 Bft) W 0,03 h 0,8 UV-I 86 W/m 5,9 C 3,0 C 22,9 km/h (4 Bft)
06.10.2017 11:00 19,2 C 7,8 C 52 % 89 % 1014,5 hPa 0,0 l/m 10,7 km/h (2 Bft) W 0,00 h 0,8 UV-I 69 W/m 6,1 C 4,8 C 18,5 km/h (3 Bft)
06.10.2017 12:00 18,3 C 8,0 C 56 % 90 % 1015,1 hPa 0,0 l/m 6,9 km/h (2 Bft) W-SW 0,25 h 0,9 UV-I 117 W/m 6,3 C 6,8 C 14,0 km/h (3 Bft)
06.10.2017 13:00 21,4 C 8,8 C 57 % 85 % 1015,0 hPa 0,0 l/m 8,0 km/h (2 Bft) W-SW 0,65 h 1,4 UV-I 169 W/m 6,4 C 7,3 C 14,9 km/h (3 Bft)
06.10.2017 14:00 22,5 C 9,3 C 55 % 83 % 1014,9 hPa 0,0 l/m 10,3 km/h (2 Bft) W-SW 0,78 h 1,4 UV-I 215 W/m 6,5 C 6,7 C 17,7 km/h (3 Bft)
06.10.2017 15:00 22,6 C 9,1 C 53 % 84 % 1015,0 hPa 0,0 l/m 11,1 km/h (2 Bft) W-SW 0,15 h 0,7 UV-I 104 W/m 6,6 C 6,2 C 18,7 km/h (3 Bft)
06.10.2017 16:00 22,7 C 9,0 C 53 % 86 % 1015,2 hPa 0,0 l/m 7,2 km/h (2 Bft) W-SW 0,27 h 0,6 UV-I 129 W/m 6,9 C 7,8 C 13,7 km/h (3 Bft)
06.10.2017 17:00 22,6 C 9,2 C 52 % 85 % 1015,5 hPa 0,0 l/m 8,6 km/h (2 Bft) W-SW 0,08 h 0,5 UV-I 48 W/m 6,8 C 7,5 C 15,1 km/h (3 Bft)
06.10.2017 18:00 22,6 C 8,3 C 54 % 90 % 1016,0 hPa 0,0 l/m 4,7 km/h (1 Bft) W-SW 0,00 h 0,0 UV-I 9 W/m 6,7 C 8,0 C 9,8 km/h (2 Bft)
06.10.2017 19:00 22,6 C 8,1 C 56 % 90 % 1016,8 hPa 0,0 l/m 5,8 km/h (2 Bft) W 0,00 h 0,0 UV-I 0 W/m 6,6 C 7,6 C 11,6 km/h (2 Bft)
06.10.2017 20:00 22,6 C 8,1 C 56 % 91 % 1017,5 hPa 0,2 l/m 5,4 km/h (1 Bft) W 0,00 h 0,0 UV-I 0 W/m 6,8 C 7,9 C 10,5 km/h (2 Bft)
06.10.2017 21:00 22,7 C 7,9 C 57 % 93 % 1018,2 hPa 1,2 l/m 2,6 km/h (1 Bft) W 0,00 h 0,0 UV-I 0 W/m 6,9 C 7,7 C 4,9 km/h (1 Bft)
06.10.2017 22:00 22,9 C 7,7 C 58 % 94 % 1018,9 hPa 0,0 l/m 4,2 km/h (1 Bft) W 0,00 h 0,0 UV-I 0 W/m 6,8 C 7,6 C 9,0 km/h (2 Bft)
06.10.2017 23:00 22,9 C 7,6 C 59 % 94 % 1019,3 hPa 0,2 l/m 1,0 km/h (0 Bft) W-SW 0,00 h 0,0 UV-I 0 W/m 6,7 C 7,6 C 2,8 km/h (1 Bft)
07.10.2017 00:00 22,8 C 7,6 C 60 % 95 % 1019,7 hPa 0,0 l/m 3,8 km/h (1 Bft) W-SW 0,00 h 0,0 UV-I 0 W/m 6,9 C 7,5 C 7,7 km/h (2 Bft)
07.10.2017 01:00 22,8 C 7,7 C 60 % 95 % 1020,2 hPa 0,0 l/m 1,8 km/h (1 Bft) W 0,00 h 0,0 UV-I 0 W/m 6,9 C 7,6 C 4,8 km/h (1 Bft)
07.10.2017 02:00 22,7 C 7,7 C 60 % 95 % 1020,5 hPa 0,0 l/m 0,5 km/h (0 Bft) W-SW 0,00 h 0,0 UV-I 0 W/m 6,9 C 7,7 C 1,8 km/h (1 Bft)
07.10.2017 03:00 22,6 C 7,6 C 60 % 95 % 1020,3 hPa 0,0 l/m 1,4 km/h (1 Bft) W-SW 0,00 h 0,0 UV-I 0 W/m 6,9 C 7,6 C 3,8 km/h (1 Bft)
07.10.2017 04:00 22,6 C 7,7 C 60 % 96 % 1020,6 hPa 0,0 l/m 2,7 km/h (1 Bft) W-SW 0,00 h 0,0 UV-I 0 W/m 7,1 C 7,6 C 6,6 km/h (2 Bft)
07.10.2017 05:00 22,6 C 7,7 C 60 % 96 % 1020,7 hPa 0,0 l/m 0,9 km/h (0 Bft) W-SW 0,00 h 0,0 UV-I 0 W/m 7,1 C 7,7 C 3,0 km/h (1 Bft)
07.10.2017 06:00 22,7 C 7,5 C 60 % 96 % 1021,0 hPa 0,0 l/m 2,1 km/h (1 Bft) W 0,00 h 0,0 UV-I 0 W/m 6,9 C 7,5 C 5,0 km/h (1 Bft)
07.10.2017 07:00 22,8 C 7,5 C 60 % 95 % 1021,4 hPa 0,2 l/m 3,1 km/h (1 Bft) W 0,00 h 0,0 UV-I 16 W/m 6,8 C 7,5 C 7,9 km/h (2 Bft)
07.10.2017 08:00 22,9 C 7,7 C 60 % 95 % 1021,5 hPa 0,0 l/m 2,3 km/h (1 Bft) W-SW 0,00 h 0,0 UV-I 47 W/m 7,0 C 7,7 C 5,8 km/h (2 Bft)
07.10.2017 09:00 23,0 C 8,1 C 59 % 94 % 1021,6 hPa 0,0 l/m 5,6 km/h (1 Bft) W-SW 0,00 h 0,6 UV-I 68 W/m 7,1 C 7,5 C 12,7 km/h (3 Bft)
07.10.2017 10:00 22,9 C 8,9 C 58 % 90 % 1021,7 hPa 0,0 l/m 7,8 km/h (2 Bft) W-SW 0,70 h 1,1 UV-I 244 W/m 7,4 C 7,5 C 15,3 km/h (3 Bft)
07.10.2017 11:00 22,9 C 9,2 C 58 % 87 % 1021,2 hPa 0,0 l/m 9,3 km/h (2 Bft) W-SW 0,62 h 1,1 UV-I 167 W/m 7,2 C 7,2 C 16,8 km/h (3 Bft)
07.10.2017 12:00 22,9 C 9,4 C 59 % 82 % 1020,8 hPa 0,0 l/m 10,4 km/h (2 Bft) W-SW 0,62 h 1,3 UV-I 165 W/m 6,5 C 6,8 C 18,8 km/h (3 Bft)
07.10.2017 13:00 23,0 C 9,3 C 60 % 81 % 1020,1 hPa 0,0 l/m 8,3 km/h (2 Bft) SW 0,03 h 0,9 UV-I 111 W/m 6,2 C 7,7 C 16,4 km/h (3 Bft)
07.10.2017 14:00 23,0 C 9,5 C 60 % 79 % 1019,3 hPa 0,0 l/m 7,0 km/h (2 Bft) W-SW 0,58 h 1,2 UV-I 171 W/m 6,0 C 8,3 C 14,5 km/h (3 Bft)
07.10.2017 15:00 22,9 C 9,6 C 60 % 78 % 1018,6 hPa 0,0 l/m 9,0 km/h (2 Bft) W-SW 0,28 h 0,8 UV-I 126 W/m 5,9 C 7,7 C 16,3 km/h (3 Bft)
07.10.2017 16:00 22,8 C 9,7 C 59 % 75 % 1017,8 hPa 0,0 l/m 8,1 km/h (2 Bft) SW 0,03 h 0,6 UV-I 96 W/m 5,5 C 8,1 C 15,7 km/h (3 Bft)
07.10.2017 17:00 22,6 C 9,5 C 59 % 76 % 1017,3 hPa 0,0 l/m 5,4 km/h (1 Bft) SW 0,00 h 0,0 UV-I 38 W/m 5,4 C 9,0 C 11,6 km/h (2 Bft)
07.10.2017 18:00 22,5 C 9,2 C 59 % 78 % 1016,8 hPa 0,0 l/m 5,7 km/h (1 Bft) SW 0,00 h 0,0 UV-I 10 W/m 5,6 C 8,6 C 12,6 km/h (3 Bft)
07.10.2017 19:00 22,4 C 8,9 C 59 % 81 % 1016,0 hPa 0,2 l/m 6,8 km/h (2 Bft) SW 0,00 h 0,0 UV-I 0 W/m 5,8 C 7,9 C 13,6 km/h (3 Bft)
07.10.2017 20:00 22,7 C 8,6 C 59 % 84 % 1015,6 hPa 0,0 l/m 5,5 km/h (1 Bft) SW 0,00 h 0,0 UV-I 0 W/m 6,0 C 8,3 C 11,5 km/h (2 Bft)
07.10.2017 21:00 22,8 C 8,5 C 60 % 85 % 1014,9 hPa 0,0 l/m 6,7 km/h (2 Bft) SW 0,00 h 0,0 UV-I 0 W/m 6,1 C 7,5 C 13,8 km/h (3 Bft)
07.10.2017 22:00 22,7 C 8,3 C 60 % 88 % 1014,4 hPa 0,0 l/m 9,4 km/h (2 Bft) W-SW 0,00 h 0,0 UV-I 0 W/m 6,3 C 6,1 C 17,2 km/h (3 Bft)
07.10.2017 23:00 22,8 C 7,8 C 61 % 89 % 1014,0 hPa 0,0 l/m 9,6 km/h (2 Bft) SW 0,00 h 0,0 UV-I 0 W/m 6,1 C 5,5 C 17,2 km/h (3 Bft)
08.10.2017 00:00 22,9 C 7,5 C 61 % 91 % 1013,6 hPa 0,0 l/m 6,9 km/h (2 Bft) W-SW 0,00 h 0,0 UV-I 0 W/m 6,2 C 6,5 C 12,9 km/h (3 Bft)
08.10.2017 01:00 22,9 C 7,3 C 61 % 94 % 1013,3 hPa 0,2 l/m 4,6 km/h (1 Bft) SW 0,00 h 0,0 UV-I 0 W/m 6,3 C 7,0 C 9,2 km/h (2 Bft)
08.10.2017 02:00 22,8 C 7,3 C 61 % 95 % 1012,6 hPa 0,0 l/m 5,6 km/h (1 Bft) SW 0,00 h 0,0 UV-I 0 W/m 6,6 C 6,8 C 11,3 km/h (2 Bft)
08.10.2017 03:00 22,8 C 7,4 C 62 % 95 % 1012,0 hPa 0,2 l/m 5,8 km/h (2 Bft) SW 0,00 h 0,0 UV-I 0 W/m 6,7 C 6,8 C 12,0 km/h (2 Bft)
08.10.2017 04:00 22,7 C 7,6 C 62 % 95 % 1011,9 hPa 0,0 l/m 7,2 km/h (2 Bft) W-SW 0,00 h 0,0 UV-I 0 W/m 6,8 C 6,4 C 14,2 km/h (3 Bft)
08.10.2017 05:00 22,7 C 7,7 C 62 % 95 % 1012,0 hPa 0,2 l/m 6,6 km/h (2 Bft) W-SW 0,00 h 0,0 UV-I 0 W/m 6,9 C 6,7 C 13,2 km/h (3 Bft)
08.10.2017 06:00 22,8 C 7,8 C 62 % 96 % 1012,1 hPa 0,4 l/m 5,1 km/h (1 Bft) W-SW 0,00 h 0,0 UV-I 0 W/m 7,1 C 7,3 C 10,6 km/h (2 Bft)
08.10.2017 07:00 22,9 C 8,0 C 61 % 96 % 1012,4 hPa 0,2 l/m 5,2 km/h (1 Bft) W-SW 0,00 h 0,0 UV-I 0 W/m 7,4 C 7,6 C 11,1 km/h (2 Bft)
08.10.2017 08:00 22,9 C 8,3 C 61 % 96 % 1013,0 hPa 0,0 l/m 3,9 km/h (1 Bft) W-SW 0,00 h 0,0 UV-I 17 W/m 7,7 C 8,1 C 9,1 km/h (2 Bft)
08.10.2017 09:00 23,0 C 8,6 C 61 % 96 % 1013,5 hPa 0,0 l/m 2,6 km/h (1 Bft) W-SW 0,02 h 0,7 UV-I 50 W/m 8,0 C 8,6 C 7,0 km/h (2 Bft)
08.10.2017 10:00 22,7 C 9,6 C 59 % 95 % 1014,0 hPa 0,0 l/m 5,3 km/h (1 Bft) W-SW 0,97 h 1,1 UV-I 186 W/m 8,9 C 9,1 C 11,9 km/h (2 Bft)
08.10.2017 11:00 20,2 C 10,2 C 57 % 91 % 1014,5 hPa 0,0 l/m 7,3 km/h (2 Bft) W-SW 0,35 h 0,9 UV-I 138 W/m 8,9 C 9,2 C 13,9 km/h (3 Bft)
08.10.2017 12:00 19,9 C 10,4 C 63 % 91 % 1014,6 hPa 0,0 l/m 9,0 km/h (2 Bft) W-SW 0,02 h 0,9 UV-I 110 W/m 9,0 C 8,5 C 15,9 km/h (3 Bft)
08.10.2017 13:00 22,2 C 10,5 C 61 % 91 % 1014,6 hPa 0,0 l/m 7,9 km/h (2 Bft) W-SW 0,05 h 0,8 UV-I 89 W/m 9,0 C 9,1 C 14,5 km/h (3 Bft)
08.10.2017 14:00 22,6 C 10,7 C 61 % 92 % 1014,6 hPa 0,0 l/m 7,3 km/h (2 Bft) W-SW 0,27 h 1,0 UV-I 129 W/m 9,4 C 9,6 C 13,4 km/h (3 Bft)
08.10.2017 15:00 22,6 C 10,7 C 60 % 92 % 1014,5 hPa 0,4 l/m 5,6 km/h (1 Bft) W-SW 0,08 h 0,8 UV-I 89 W/m 9,5 C 10,4 C 11,9 km/h (2 Bft)
08.10.2017 16:00 22,6 C 10,6 C 59 % 93 % 1014,5 hPa 0,0 l/m 8,6 km/h (2 Bft) W-SW 0,05 h 0,5 UV-I 64 W/m 9,6 C 8,9 C 15,6 km/h (3 Bft)
08.10.2017 17:00 22,7 C 10,6 C 61 % 93 % 1014,8 hPa 0,2 l/m 6,0 km/h (2 Bft) W 0,00 h 0,0 UV-I 27 W/m 9,5 C 9,8 C 11,5 km/h (2 Bft)
08.10.2017 18:00 22,8 C 10,0 C 63 % 94 % 1015,5 hPa 0,8 l/m 6,1 km/h (2 Bft) NW 0,00 h 0,0 UV-I 5 W/m 9,1 C 9,2 C 10,4 km/h (2 Bft)
08.10.2017 19:00 22,9 C 9,3 C 63 % 94 % 1016,3 hPa 0,0 l/m 0,0 km/h (0 Bft) N 0,00 h 0,0 UV-I 0 W/m 8,4 C 9,3 C 0,0 km/h (0 Bft)
08.10.2017 20:00 22,8 C 8,6 C 63 % 94 % 1017,1 hPa 0,0 l/m 0,0 km/h (0 Bft) N 0,00 h 0,0 UV-I 0 W/m 7,7 C 8,6 C 0,0 km/h (0 Bft)
08.10.2017 21:00 22,9 C 8,3 C 64 % 94 % 1017,7 hPa 0,0 l/m 0,0 km/h (0 Bft) N 0,00 h 0,0 UV-I 0 W/m 7,4 C 8,3 C 0,0 km/h (0 Bft)
08.10.2017 22:00 23,1 C 7,3 C 66 % 93 % 1018,2 hPa 0,0 l/m 0,0 km/h (0 Bft) N 0,00 h 0,0 UV-I 0 W/m 6,3 C 7,3 C 0,0 km/h (0 Bft)
08.10.2017 23:00 23,0 C 6,2 C 65 % 93 % 1018,6 hPa 0,0 l/m 0,0 km/h (0 Bft) N 0,00 h 0,0 UV-I 0 W/m 5,2 C 6,2 C 0,0 km/h (0 Bft)
Min-Datum _ 06.10.17 02.10.17 05.10.17 05.10.17 05.10.17 - 02.10.17 - - - - 02.10.17 06.10.17 02.10.17
_ Min-Zeit 12:28 07:10 12:45 12:54 15:43 - 00:00 - - - - 07:13 10:11 00:00
Minimum _ 17,8 C 4,2 C 44 % 62 % 1005,9 hPa - 0,0 km/h (0 Bft) - - - - 3,5 C -1,5 C 0,0 km/h (0 Bft)
Max-Datum _ 02.10.17 02.10.17 03.10.17 02.10.17 03.10.17 03.10.17 05.10.17 - 08.10.17 05.10.17 04.10.17 02.10.17 02.10.17 05.10.17
_ Max-Zeit 01:46 14:05 11:47 09:08 23:53 08:01 14:33 - 10:02 11:36 13:11 23:08 14:05 17:36
Maximum _ 24,7 C 14,6 C 68 % 98 % 1024,5 hPa 3,2 l/m 30,6 km/h
W-SW (5 Bft)
- 0,08 h 3,5 UV-I 754 W/m 13,0 C 14,6 C 53,1 km/h
W-SW (7 Bft)
Durchschnitt _ 22,7 C 9,6 C 59 % 89 % 1016,7 hPa #19,0 l/m 5,3 km/h (1 Bft) W-SW #21:06 h 1,0 UV-I 107 W/m 7,9 C 8,7 C 10,5 km/h (2 Bft)